This is the latest recevied weather packets stored in our database for station/object IZ8FMH-11. If no packets are shown the sender has not sent any weather packets the latest 10 day(s).
| Time | Temp. | Humidity | Pressure | Rain* | Wind** | Luminosity | Snow |
|---|---|---|---|---|---|---|---|
| 1787972698 | 28.33° C | 41% | 1013.4 hPa | - | - | - | - |
| 1787970898 | 28.33° C | 39% | 1013.2 hPa | - | - | - | - |
| 1787969099 | 28.33° C | 39% | 1012.7 hPa | - | - | - | - |
| 1787967298 | 28.33° C | 35% | 1011.7 hPa | - | - | - | - |
| 1787965497 | 28.33° C | 35% | 1011.9 hPa | - | - | - | - |
| 1787963697 | 28.89° C | 34% | 1012.1 hPa | - | - | - | - |
| 1787961899 | 28.89° C | 36% | 1012.3 hPa | - | - | - | - |
| 1787960099 | 28.89° C | 38% | 1012.8 hPa | - | - | - | - |
| 1787958299 | 29.44° C | 38% | 1013.1 hPa | - | - | - | - |
| 1787956499 | 29.44° C | 39% | 1013.5 hPa | - | - | - | - |
| 1787954699 | 30° C | 35% | 1013.1 hPa | - | - | - | - |
| 1787952898 | 30° C | 37% | 1013.4 hPa | - | - | - | - |
| 1787951098 | 30° C | 36% | 1013.1 hPa | - | - | - | - |
| 1787949298 | 30.56° C | 37% | 1012.8 hPa | - | - | - | - |
| 1787947498 | 30.56° C | 38% | 1012.8 hPa | - | - | - | - |
| 1787945698 | 31.11° C | 41% | 1013.1 hPa | - | - | - | - |
| 1787943898 | 31.11° C | 44% | 1013.4 hPa | - | - | - | - |
| 1787942098 | 31.67° C | 45% | 1013.4 hPa | - | - | - | - |
| 1787940298 | 31.67° C | 47% | 1012.9 hPa | - | - | - | - |
| 1787938498 | 32.22° C | 47% | 1012.5 hPa | - | - | - | - |
| 1787936698 | 32.22° C | 47% | 1012.4 hPa | - | - | - | - |
| 1787934898 | 32.22° C | 42% | 1012.6 hPa | - | - | - | - |
| 1787933098 | 32.22° C | 42% | 1012.6 hPa | - | - | - | - |
| 1787931297 | 32.78° C | 44% | 1012.5 hPa | - | - | - | - |
| 1787929497 | 32.78° C | 44% | 1012.5 hPa | - | - | - | - |
* Rain since midnight (hover to see other rain measurements)
** Current wind speed in m/s (hover to see current wind gust speed)